Tracking 20721 objects as of 1-Jun-2020
HD Live streaming from Space Station
objects crossing your sky now

FENGYUN 1C DEB

Track FENGYUN 1C DEB now!
10-day predictions


NORAD ID: 35121
Int'l Code: 1999-025DKZ
Perigee: 772.5 km
Apogee: 1,007.9 km
Inclination: 98.3 °
Period: 102.6 minutes
Semi major axis: 7261 km
RCS: 0.0043 m2 (small)
Launch date: May 10, 1999
Source: People's Republic of China (PRC)
Launch site: Taiyaun Space Center, China (TSC)

Note: This is SATELLITE DEBRIS
aabbcc
Your satellite tracking list
Your tracking list is empty




NASA's NSSDC Master Catalog

Two Line Element Set (TLE):
1 35121U 99025DKZ 20142.27365852 -.00000195  00000-0 -90664-4 0  9990
2 35121  98.2633 145.8365 0162083  96.9572 265.0063 14.03101494630788
Source of the keplerian elements: AFSPC